{"data":{"norad_id":61615,"epoch":"2026-09-22T23:23:35.304288Z","epoch_age_seconds":83545,"freshness":"FRESH","line1":"1 61615U 24189B   26265.97471417  .00001421  00000+0  11581-3 0  9990","line2":"2 61615  97.5113 282.9281 0002512  48.7024 311.4417 15.01003631105113","mean_motion":15.01003631,"eccentricity":0.0002512,"inclination_deg":97.5113,"raan_deg":282.9281,"arg_perigee_deg":48.7024,"mean_anomaly_deg":311.4417,"bstar":0.00011581,"rev_number":10511,"period_min":95.935810564338,"perigee_km":562.05636807779,"apogee_km":565.54399731838,"semimajor_km":6941.9371826981,"source":"CELESTRAK","updated_at":"2026-09-23T09:00:20.955860Z"}}